^^
Datos históricos de la estación: Murcia-Puente Tocinos
Diario Informe para Enero 27, 2019 Unidades:  Métrico    Inglés   Ambas
Diario Semanal Mensual Anual Configurable
  Máximo: Mínimo: Media:
Temperatura: 18.9 °C 8.3 °C 13.5 °C
Punto de rocio: 6.6 °C -1.3 °C 2.5 °C
Humedad: 75% 31% 50%
Velocidad viento: 31.7km/h 3.2km/h 12.4km/h
Racha viento: 53.7km/h - -
Viento- - WSW
Presión: 1014.9 hPa 1009.7 hPa -
Precipitación: 0.0 mm    
Historical Graphs
 
 
Tabla de datos para Enero 27, 2019
Hora Temperatura Punto de rocio Presión Viento Velocidad viento Racha viento Humedad Intensidad lluvia(por hora) Nubes
00:00 11.0 °C 6.6 °C 1014.3 hPa SSE 8.0 km/h 12.9 km/h 74% 0.0 mm CLR
00:05 10.8 °C 6.6 °C 1014.3 hPa SSE 8.4 km/h 13.0 km/h 75% 0.0 mm CLR
00:10 10.7 °C 6.4 °C 1014.3 hPa SSE 8.7 km/h 9.5 km/h 75% 0.0 mm CLR
00:15 10.7 °C 6.4 °C 1014.3 hPa South 8.7 km/h 11.1 km/h 75% 0.0 mm CLR
00:20 10.7 °C 6.4 °C 1014.2 hPa SSW 6.9 km/h 11.9 km/h 75% 0.0 mm CLR
00:25 10.7 °C 6.4 °C 1014.2 hPa SSE 6.9 km/h 13.0 km/h 75% 0.0 mm CLR
00:30 10.7 °C 6.3 °C 1014.2 hPa South 8.4 km/h 11.1 km/h 74% 0.0 mm CLR
00:35 10.7 °C 6.3 °C 1014.0 hPa South 8.4 km/h 11.1 km/h 74% 0.0 mm CLR
00:40 10.7 °C 6.3 °C 1014.0 hPa South 9.5 km/h 11.1 km/h 74% 0.0 mm CLR
00:45 10.7 °C 6.3 °C 1014.0 hPa South 9.5 km/h 11.1 km/h 74% 0.0 mm CLR
00:50 10.6 °C 6.2 °C 1013.9 hPa SSW 7.6 km/h 9.5 km/h 74% 0.0 mm CLR
00:55 10.6 °C 6.3 °C 1013.9 hPa SSW 7.6 km/h 11.1 km/h 75% 0.0 mm CLR
01:00 10.6 °C 6.2 °C 1013.9 hPa SSW 8.0 km/h 14.5 km/h 74% 0.0 mm CLR
01:04 10.6 °C 6.2 °C 1013.7 hPa South 8.4 km/h 11.1 km/h 74% 0.0 mm CLR
01:09 10.5 °C 6.1 °C 1013.7 hPa South 8.4 km/h 13.0 km/h 74% 0.0 mm CLR
01:14 10.5 °C 6.1 °C 1013.7 hPa SSE 8.4 km/h 11.9 km/h 74% 0.0 mm CLR
01:19 10.4 °C 5.9 °C 1013.6 hPa South 8.7 km/h 13.0 km/h 74% 0.0 mm CLR
01:24 10.3 °C 5.9 °C 1013.6 hPa SSW 8.7 km/h 13.0 km/h 74% 0.0 mm CLR
01:29 10.3 °C 5.9 °C 1013.6 hPa SSW 9.5 km/h 9.3 km/h 74% 0.0 mm CLR
01:34 10.3 °C 5.9 °C 1013.4 hPa WSW 9.5 km/h 9.5 km/h 74% 0.0 mm CLR
01:39 10.3 °C 5.9 °C 1013.4 hPa WSW 6.9 km/h 7.4 km/h 74% 0.0 mm CLR
01:44 10.2 °C 5.8 °C 1013.4 hPa SW 6.9 km/h 9.3 km/h 74% 0.0 mm CLR
01:49 10.3 °C 5.9 °C 1013.2 hPa SW 6.4 km/h 7.4 km/h 74% 0.0 mm CLR
01:54 10.3 °C 5.7 °C 1013.2 hPa SW 6.4 km/h 7.4 km/h 73% 0.0 mm CLR
01:59 10.3 °C 5.7 °C 1013.2 hPa SSW 5.0 km/h 9.3 km/h 73% 0.0 mm CLR
02:04 10.3 °C 5.7 °C 1013.1 hPa SSW 5.0 km/h 11.1 km/h 73% 0.0 mm CLR
02:09 10.4 °C 5.6 °C 1013.1 hPa SSW 6.9 km/h 9.3 km/h 72% 0.0 mm CLR
02:14 10.4 °C 5.6 °C 1013.1 hPa SW 6.9 km/h 13.0 km/h 72% 0.0 mm CLR
02:19 10.4 °C 5.6 °C 1013.0 hPa SSW 7.6 km/h 9.3 km/h 72% 0.0 mm CLR
02:24 10.3 °C 5.4 °C 1013.0 hPa SSW 7.6 km/h 16.7 km/h 72% 0.0 mm CLR
02:29 10.2 °C 5.4 °C 1013.0 hPa SW 9.5 km/h 14.8 km/h 72% 0.0 mm CLR
02:34 10.2 °C 5.4 °C 1012.8 hPa SSW 9.5 km/h 11.1 km/h 72% 0.0 mm CLR
02:39 10.3 °C 5.4 °C 1012.8 hPa South 9.5 km/h 7.4 km/h 72% 0.0 mm CLR
02:44 10.3 °C 5.4 °C 1012.8 hPa South 9.5 km/h 7.4 km/h 72% 0.0 mm CLR
02:49 10.2 °C 5.4 °C 1012.6 hPa SSW 5.8 km/h 3.7 km/h 72% 0.0 mm CLR
02:54 10.2 °C 5.4 °C 1012.6 hPa South 5.8 km/h 5.6 km/h 72% 0.0 mm CLR
02:59 10.1 °C 5.3 °C 1012.6 hPa SSW 3.2 km/h 9.3 km/h 72% 0.0 mm CLR
03:04 9.9 °C 5.1 °C 1012.7 hPa SSW 3.2 km/h 11.1 km/h 72% 0.0 mm CLR
03:09 9.8 °C 5.2 °C 1012.7 hPa South 8.4 km/h 11.9 km/h 73% 0.0 mm CLR
03:14 9.7 °C 5.1 °C 1012.7 hPa SSW 8.4 km/h 11.1 km/h 73% 0.0 mm CLR
03:19 9.5 °C 4.9 °C 1012.6 hPa SSW 8.4 km/h 11.1 km/h 73% 0.0 mm CLR
03:24 9.3 °C 4.9 °C 1012.6 hPa South 8.4 km/h 9.3 km/h 74% 0.0 mm CLR
03:29 9.3 °C 4.9 °C 1012.6 hPa South 8.7 km/h 13.0 km/h 74% 0.0 mm CLR
03:34 9.3 °C 4.9 °C 1012.4 hPa SSW 8.7 km/h 11.1 km/h 74% 0.0 mm CLR
03:39 9.3 °C 4.9 °C 1012.4 hPa South 8.4 km/h 13.0 km/h 74% 0.0 mm CLR
03:44 9.3 °C 4.9 °C 1012.4 hPa WSW 8.4 km/h 11.1 km/h 74% 0.0 mm CLR
03:49 9.4 °C 4.8 °C 1012.3 hPa WSW 8.4 km/h 9.3 km/h 73% 0.0 mm CLR
03:54 9.4 °C 4.6 °C 1012.3 hPa WSW 8.4 km/h 8.7 km/h 72% 0.0 mm CLR
03:59 9.4 °C 4.6 °C 1012.3 hPa WSW 6.4 km/h 8.4 km/h 72% 0.0 mm CLR
04:04 9.4 °C 4.6 °C 1012.0 hPa WSW 6.4 km/h 7.4 km/h 72% 0.0 mm CLR
04:09 9.4 °C 4.6 °C 1012.0 hPa SSW 5.0 km/h 7.4 km/h 72% 0.0 mm CLR
04:14 9.5 °C 4.5 °C 1012.0 hPa SW 5.0 km/h 9.3 km/h 71% 0.0 mm CLR
04:19 9.5 °C 4.3 °C 1011.8 hPa SSW 6.4 km/h 11.1 km/h 70% 0.0 mm CLR
04:24 9.6 °C 4.2 °C 1011.8 hPa SW 6.4 km/h 11.1 km/h 69% 0.0 mm CLR
04:29 9.6 °C 4.2 °C 1011.8 hPa SW 8.4 km/h 13.0 km/h 69% 0.0 mm CLR
04:34 9.7 °C 3.9 °C 1011.6 hPa WSW 8.4 km/h 13.0 km/h 67% 0.0 mm CLR
04:39 9.9 °C 3.6 °C 1011.6 hPa WSW 8.4 km/h 13.0 km/h 65% 0.0 mm CLR
04:44 10.0 °C 3.5 °C 1011.6 hPa SW 8.4 km/h 15.6 km/h 64% 0.0 mm CLR
04:49 10.1 °C 3.4 °C 1011.3 hPa SW 8.7 km/h 11.1 km/h 63% 0.0 mm CLR
04:54 10.1 °C 3.4 °C 1011.3 hPa South 8.7 km/h 7.6 km/h 63% 0.0 mm CLR
04:59 10.1 °C 3.4 °C 1011.3 hPa SSW 6.9 km/h 9.3 km/h 63% 0.0 mm CLR
05:04 10.1 °C 3.4 °C 1011.3 hPa SW 6.9 km/h 3.9 km/h 63% 0.0 mm CLR
05:09 10.0 °C 3.1 °C 1011.3 hPa SSW 5.0 km/h 9.5 km/h 62% 0.0 mm CLR
05:14 9.9 °C 2.7 °C 1011.3 hPa SW 5.0 km/h 11.1 km/h 61% 0.0 mm CLR
05:19 9.9 °C 2.9 °C 1011.1 hPa WSW 6.9 km/h 7.4 km/h 62% 0.0 mm CLR
05:24 9.9 °C 2.9 °C 1011.1 hPa SSW 6.9 km/h 14.8 km/h 62% 0.0 mm CLR
05:29 9.9 °C 2.7 °C 1011.1 hPa WSW 8.4 km/h 9.3 km/h 61% 0.0 mm CLR
05:34 10.1 °C 2.9 °C 1010.9 hPa WSW 8.4 km/h 14.8 km/h 61% 0.0 mm CLR
05:39 10.2 °C 3.0 °C 1010.9 hPa WNW 8.4 km/h 12.2 km/h 61% 0.0 mm CLR
05:44 9.9 °C 2.7 °C 1010.9 hPa SW 8.4 km/h 11.1 km/h 61% 0.0 mm CLR
05:49 10.0 °C 2.6 °C 1010.7 hPa SW 6.4 km/h 13.0 km/h 60% 0.0 mm CLR
05:54 10.2 °C 2.8 °C 1010.7 hPa SSW 6.4 km/h 10.0 km/h 60% 0.0 mm CLR
05:59 10.2 °C 2.6 °C 1010.7 hPa SW 7.6 km/h 13.0 km/h 59% 0.0 mm CLR
06:04 10.2 °C 2.6 °C 1010.6 hPa SSW 7.6 km/h 14.8 km/h 59% 0.0 mm CLR
06:09 10.3 °C 2.4 °C 1010.6 hPa SSW 8.7 km/h 9.5 km/h 58% 0.0 mm CLR
06:14 10.3 °C 2.2 °C 1010.6 hPa SSW 8.7 km/h 9.5 km/h 57% 0.0 mm CLR
06:19 10.2 °C 2.1 °C 1010.5 hPa South 8.4 km/h 11.1 km/h 57% 0.0 mm CLR
06:24 10.1 °C 2.2 °C 1010.5 hPa SW 8.4 km/h 11.1 km/h 58% 0.0 mm CLR
06:29 10.0 °C 2.1 °C 1010.5 hPa WSW 7.6 km/h 7.4 km/h 58% 0.0 mm CLR
06:34 9.9 °C 2.0 °C 1010.5 hPa WSW 7.6 km/h 13.0 km/h 58% 0.0 mm CLR
06:39 9.9 °C 2.0 °C 1010.5 hPa SW 5.8 km/h 9.3 km/h 58% 0.0 mm CLR
06:44 9.8 °C 1.9 °C 1010.5 hPa SSW 5.8 km/h 9.3 km/h 58% 0.0 mm CLR
06:49 9.7 °C 1.8 °C 1010.6 hPa NW 5.8 km/h 9.3 km/h 58% 0.0 mm CLR
06:54 9.7 °C 1.8 °C 1010.6 hPa SSW 5.8 km/h 7.4 km/h 58% 0.0 mm CLR
06:59 9.6 °C 1.7 °C 1010.6 hPa South 5.8 km/h 11.1 km/h 58% 0.0 mm CLR
07:04 9.4 °C 1.8 °C 1010.3 hPa SW 5.8 km/h 7.4 km/h 59% 0.0 mm CLR
07:09 9.6 °C 1.7 °C 1010.3 hPa SW 6.9 km/h 9.3 km/h 58% 0.0 mm CLR
07:14 9.7 °C 1.6 °C 1010.3 hPa SW 6.9 km/h 7.4 km/h 57% 0.0 mm CLR
07:19 9.7 °C 1.6 °C 1010.3 hPa SW 6.9 km/h 11.1 km/h 57% 0.0 mm CLR
07:24 9.8 °C 1.4 °C 1010.3 hPa SW 6.9 km/h 7.4 km/h 56% 0.0 mm CLR
07:29 9.8 °C 1.7 °C 1010.3 hPa WSW 6.4 km/h 7.4 km/h 57% 0.0 mm CLR
07:34 9.6 °C 1.5 °C 1010.4 hPa SW 6.4 km/h 7.4 km/h 57% 0.0 mm CLR
07:39 9.4 °C 1.6 °C 1010.4 hPa West 4.7 km/h 7.4 km/h 58% 0.0 mm CLR
07:44 9.0 °C 1.4 °C 1010.4 hPa WNW 4.7 km/h 7.4 km/h 59% 0.0 mm CLR
07:49 8.7 °C 1.6 °C 1010.5 hPa West 5.0 km/h 7.4 km/h 61% 0.0 mm CLR
07:54 8.4 °C 1.6 °C 1010.5 hPa WSW 5.0 km/h 5.8 km/h 62% 0.0 mm CLR
07:59 8.3 °C 1.4 °C 1010.5 hPa WSW 4.7 km/h 7.4 km/h 62% 0.0 mm CLR
08:04 8.4 °C 1.6 °C 1010.5 hPa SW 4.7 km/h 7.6 km/h 62% 0.0 mm CLR
08:09 8.6 °C 1.5 °C 1010.5 hPa South 5.0 km/h 8.4 km/h 61% 0.0 mm CLR
08:14 8.8 °C 1.4 °C 1010.5 hPa SSW 5.0 km/h 9.3 km/h 60% 0.0 mm CLR
08:19 8.9 °C 1.3 °C 1010.5 hPa SW 6.4 km/h 7.4 km/h 59% 0.0 mm CLR
08:24 8.9 °C 1.3 °C 1010.5 hPa SW 6.4 km/h 9.3 km/h 59% 0.0 mm CLR
08:29 8.9 °C 1.3 °C 1010.5 hPa SSW 5.0 km/h 9.5 km/h 59% 0.0 mm CLR
08:34 9.0 °C 1.4 °C 1010.7 hPa SSW 5.0 km/h 8.4 km/h 59% 0.0 mm CLR
08:39 9.0 °C 1.4 °C 1010.7 hPa SW 6.9 km/h 11.1 km/h 59% 0.0 mm CLR
08:44 9.2 °C 1.3 °C 1010.7 hPa SSW 6.9 km/h 13.0 km/h 58% 0.0 mm CLR
08:49 9.3 °C 1.4 °C 1010.6 hPa SSW 8.4 km/h 9.3 km/h 58% 0.0 mm CLR
08:54 9.4 °C 1.6 °C 1010.6 hPa SW 8.4 km/h 10.0 km/h 58% 0.0 mm CLR
08:59 9.4 °C 1.6 °C 1010.6 hPa SSW 8.4 km/h 11.1 km/h 58% 0.0 mm CLR
09:04 9.4 °C 1.8 °C 1010.5 hPa SSW 8.4 km/h 9.3 km/h 59% 0.0 mm CLR
09:09 9.3 °C 1.7 °C 1010.5 hPa South 6.9 km/h 7.4 km/h 59% 0.0 mm CLR
09:14 9.4 °C 1.6 °C 1010.5 hPa WSW 6.9 km/h 9.3 km/h 58% 0.0 mm CLR
09:19 9.7 °C 1.8 °C 1010.8 hPa WSW 4.7 km/h 7.4 km/h 58% 0.0 mm CLR
09:24 9.6 °C 1.9 °C 1010.8 hPa NNW 4.7 km/h 11.1 km/h 59% 0.0 mm CLR
09:29 9.3 °C 1.7 °C 1010.8 hPa SW 6.4 km/h 13.0 km/h 59% 0.0 mm CLR
09:34 9.3 °C 1.9 °C 1010.6 hPa WSW 6.4 km/h 9.3 km/h 60% 0.0 mm CLR
09:39 9.6 °C 1.9 °C 1010.6 hPa WSW 6.9 km/h 7.4 km/h 59% 0.0 mm CLR
09:44 9.8 °C 1.9 °C 1010.6 hPa West 6.9 km/h 13.0 km/h 58% 0.0 mm CLR
09:49 10.4 °C 1.7 °C 1010.7 hPa West 5.8 km/h 9.3 km/h 55% 0.0 mm CLR
09:54 11.1 °C 1.9 °C 1010.7 hPa WSW 5.8 km/h 5.6 km/h 53% 0.0 mm CLR
09:59 11.6 °C 2.6 °C 1010.7 hPa SSE 5.0 km/h 9.5 km/h 54% 0.0 mm CLR
10:04 11.4 °C 2.9 °C 1010.7 hPa SE 5.0 km/h 13.0 km/h 56% 0.0 mm CLR
10:09 11.2 °C 3.0 °C 1010.7 hPa SSE 6.4 km/h 11.1 km/h 57% 0.0 mm CLR
10:14 11.1 °C 3.2 °C 1010.7 hPa WSW 6.4 km/h 11.1 km/h 58% 0.0 mm CLR
10:19 11.3 °C 3.3 °C 1010.7 hPa SW 7.6 km/h 8.4 km/h 58% 0.0 mm CLR
10:24 12.2 °C 3.7 °C 1010.7 hPa SW 7.6 km/h 13.0 km/h 56% 0.0 mm CLR
10:29 13.4 °C 4.0 °C 1010.7 hPa WSW 8.4 km/h 14.8 km/h 53% 0.0 mm CLR
10:34 14.2 °C 4.2 °C 1010.8 hPa West 8.4 km/h 9.3 km/h 51% 0.0 mm CLR
10:39 14.7 °C 4.4 °C 1010.8 hPa WSW 8.4 km/h 24.1 km/h 50% 0.0 mm CLR
10:44 15.3 °C 4.6 °C 1010.8 hPa SW 8.4 km/h 11.1 km/h 49% 0.0 mm CLR
10:49 15.6 °C 4.9 °C 1010.9 hPa West 9.5 km/h 5.6 km/h 49% 0.0 mm CLR
10:54 15.9 °C 4.9 °C 1010.9 hPa WSW 9.5 km/h 16.7 km/h 48% 0.0 mm CLR
10:59 16.1 °C 5.1 °C 1010.9 hPa West 8.4 km/h 13.0 km/h 48% 0.0 mm CLR
11:04 16.3 °C 4.9 °C 1011.0 hPa WNW 8.4 km/h 17.2 km/h 47% 0.0 mm CLR
11:09 16.6 °C 4.9 °C 1011.0 hPa West 6.9 km/h 20.1 km/h 46% 0.0 mm CLR
11:14 16.6 °C 4.6 °C 1011.0 hPa West 6.9 km/h 20.4 km/h 45% 0.0 mm CLR
11:19 16.7 °C 4.7 °C 1011.1 hPa SW 13.7 km/h 22.2 km/h 45% 0.0 mm CLR
11:24 16.8 °C 4.8 °C 1011.1 hPa North 13.7 km/h 9.3 km/h 45% 0.0 mm CLR
11:29 16.8 °C 4.8 °C 1011.1 hPa South 6.9 km/h 9.3 km/h 45% 0.0 mm CLR
11:34 16.8 °C 4.8 °C 1010.9 hPa WSW 6.9 km/h 7.4 km/h 45% 0.0 mm CLR
11:39 16.9 °C 4.6 °C 1010.9 hPa SSW 5.8 km/h 13.0 km/h 44% 0.0 mm CLR
11:44 16.9 °C 4.6 °C 1010.9 hPa SW 5.8 km/h 11.1 km/h 44% 0.0 mm CLR
11:49 17.0 °C 4.7 °C 1010.9 hPa SSW 8.7 km/h 16.7 km/h 44% 0.0 mm CLR
11:54 17.2 °C 4.5 °C 1010.9 hPa WSW 8.7 km/h 13.0 km/h 43% 0.0 mm CLR
11:59 17.4 °C 4.3 °C 1010.9 hPa WSW 10.0 km/h 11.1 km/h 42% 0.0 mm CLR
12:04 17.8 °C 4.0 °C 1010.9 hPa WNW 10.0 km/h 38.9 km/h 40% 0.0 mm CLR
12:09 18.3 °C 3.7 °C 1010.9 hPa West 13.0 km/h 35.2 km/h 38% 0.0 mm CLR
12:14 18.4 °C 3.8 °C 1010.9 hPa NW 13.0 km/h 38.9 km/h 38% 0.0 mm CLR
12:19 18.3 °C 3.7 °C 1010.9 hPa NW 22.5 km/h 34.3 km/h 38% 0.0 mm CLR
12:24 18.4 °C 3.4 °C 1010.9 hPa WNW 22.5 km/h 40.7 km/h 37% 0.0 mm CLR
12:29 18.4 °C 3.4 °C 1010.9 hPa NW 25.6 km/h 37.0 km/h 37% 0.0 mm CLR
12:34 18.4 °C 3.1 °C 1010.9 hPa NW 25.6 km/h 35.2 km/h 36% 0.0 mm CLR
12:39 18.4 °C 3.1 °C 1010.9 hPa NNW 23.3 km/h 42.6 km/h 36% 0.0 mm CLR
12:44 18.4 °C 3.1 °C 1010.9 hPa NW 23.3 km/h 37.0 km/h 36% 0.0 mm CLR
12:49 18.6 °C 2.8 °C 1010.7 hPa West 23.7 km/h 29.1 km/h 35% 0.0 mm CLR
12:54 18.6 °C 3.2 °C 1010.7 hPa WNW 23.7 km/h 33.3 km/h 36% 0.0 mm CLR
12:59 18.7 °C 3.3 °C 1010.7 hPa NW 22.5 km/h 25.9 km/h 36% 0.0 mm CLR
13:04 18.9 °C 3.1 °C 1010.5 hPa West 22.5 km/h 31.5 km/h 35% 0.0 mm CLR
13:09 18.9 °C 3.1 °C 1010.5 hPa WNW 21.7 km/h 46.3 km/h 35% 0.0 mm CLR
14:14 18.3 °C 3.3 °C 1009.8 hPa WNW 20.1 km/h 46.3 km/h 37% 0.0 mm CLR
14:19 18.4 °C 3.1 °C 1009.7 hPa NW 27.4 km/h 51.8 km/h 36% 0.0 mm CLR
14:24 18.6 °C 3.2 °C 1009.7 hPa WNW 27.4 km/h 37.0 km/h 36% 0.0 mm CLR
14:29 18.4 °C 3.4 °C 1009.7 hPa West 25.6 km/h 46.3 km/h 37% 0.0 mm CLR
14:34 18.5 °C 3.1 °C 1009.8 hPa WNW 25.6 km/h 38.9 km/h 36% 0.0 mm CLR
14:39 18.7 °C 3.3 °C 1009.8 hPa WSW 25.1 km/h 44.4 km/h 36% 0.0 mm CLR
14:44 18.7 °C 3.3 °C 1009.8 hPa WSW 25.1 km/h 35.2 km/h 36% 0.0 mm CLR
14:49 18.7 °C 3.3 °C 1010.0 hPa WSW 23.3 km/h 24.1 km/h 36% 0.0 mm CLR
14:54 18.7 °C 3.3 °C 1010.0 hPa West 23.3 km/h 35.2 km/h 36% 0.0 mm CLR
14:59 18.6 °C 3.2 °C 1010.0 hPa NW 24.5 km/h 44.4 km/h 36% 0.0 mm CLR
15:04 18.6 °C 3.6 °C 1010.0 hPa WNW 24.5 km/h 37.0 km/h 37% 0.0 mm CLR
15:09 18.5 °C 3.5 °C 1010.0 hPa NW 27.0 km/h 25.9 km/h 37% 0.0 mm CLR
15:14 18.5 °C 3.5 °C 1010.0 hPa WNW 27.0 km/h 28.2 km/h 37% 0.0 mm CLR
15:19 18.6 °C 3.6 °C 1010.1 hPa NW 20.1 km/h 33.3 km/h 37% 0.0 mm CLR
15:24 18.2 °C 2.9 °C 1010.1 hPa WNW 20.1 km/h 38.9 km/h 36% 0.0 mm CLR
15:29 18.1 °C 3.2 °C 1010.1 hPa WNW 28.2 km/h 38.9 km/h 37% 0.0 mm CLR
15:34 18.0 °C 2.7 °C 1010.3 hPa WNW 28.2 km/h 40.7 km/h 36% 0.0 mm CLR
15:39 18.1 °C 2.8 °C 1010.3 hPa West 23.7 km/h 38.9 km/h 36% 0.0 mm CLR
15:44 18.0 °C 2.7 °C 1010.3 hPa NW 23.7 km/h 38.1 km/h 36% 0.0 mm CLR
15:49 17.8 °C 2.5 °C 1010.6 hPa West 26.2 km/h 53.7 km/h 36% 0.0 mm CLR
15:54 17.7 °C 2.4 °C 1010.6 hPa WNW 26.2 km/h 42.0 km/h 36% 0.0 mm CLR
15:59 17.7 °C 2.4 °C 1010.6 hPa West 30.6 km/h 46.3 km/h 36% 0.0 mm CLR
16:04 17.7 °C 2.4 °C 1010.6 hPa North 30.6 km/h 51.8 km/h 36% 0.0 mm CLR
16:09 17.6 °C 2.7 °C 1010.6 hPa WSW 27.4 km/h 37.0 km/h 37% 0.0 mm CLR
16:14 17.6 °C 2.7 °C 1010.6 hPa NW 27.4 km/h 40.7 km/h 37% 0.0 mm CLR
16:19 17.6 °C 2.7 °C 1010.4 hPa West 23.3 km/h 33.3 km/h 37% 0.0 mm CLR
16:24 17.6 °C 2.7 °C 1010.4 hPa WSW 23.3 km/h 29.6 km/h 37% 0.0 mm CLR
16:29 17.6 °C 2.3 °C 1010.4 hPa WNW 20.9 km/h 35.2 km/h 36% 0.0 mm CLR
16:34 17.6 °C 2.7 °C 1010.6 hPa West 20.9 km/h 22.2 km/h 37% 0.0 mm CLR
16:39 17.7 °C 2.8 °C 1010.6 hPa WNW 19.0 km/h 30.9 km/h 37% 0.0 mm CLR
16:44 17.6 °C 2.7 °C 1010.6 hPa West 19.0 km/h 40.7 km/h 37% 0.0 mm CLR
16:49 17.6 °C 2.7 °C 1010.9 hPa West 18.0 km/h 16.7 km/h 37% 0.0 mm CLR
16:54 17.7 °C 2.8 °C 1010.9 hPa West 18.0 km/h 16.7 km/h 37% 0.0 mm CLR
16:59 17.7 °C 2.8 °C 1010.9 hPa WSW 12.2 km/h 25.9 km/h 37% 0.0 mm CLR
17:04 17.6 °C 2.7 °C 1011.0 hPa WSW 12.2 km/h 40.7 km/h 37% 0.0 mm CLR
17:09 17.5 °C 2.6 °C 1011.0 hPa West 17.2 km/h 37.0 km/h 37% 0.0 mm CLR
17:14 17.4 °C 2.6 °C 1011.0 hPa NW 17.2 km/h 38.9 km/h 37% 0.0 mm CLR
17:19 17.4 °C 2.2 °C 1011.0 hPa WSW 22.0 km/h 33.3 km/h 36% 0.0 mm CLR
17:24 17.3 °C 1.7 °C 1011.0 hPa WNW 22.0 km/h 42.6 km/h 35% 0.0 mm CLR
17:29 17.2 °C 1.6 °C 1011.0 hPa West 21.7 km/h 27.8 km/h 35% 0.0 mm CLR
17:34 17.3 °C 2.1 °C 1011.2 hPa West 21.7 km/h 22.2 km/h 36% 0.0 mm CLR
17:39 17.3 °C 1.7 °C 1011.2 hPa West 13.0 km/h 33.3 km/h 35% 0.0 mm CLR
17:44 17.3 °C 1.7 °C 1011.2 hPa West 13.0 km/h 22.0 km/h 35% 0.0 mm CLR
17:49 17.3 °C 1.7 °C 1011.4 hPa WSW 15.6 km/h 20.4 km/h 35% 0.0 mm CLR
17:54 17.3 °C 1.7 °C 1011.4 hPa WNW 15.6 km/h 12.2 km/h 35% 0.0 mm CLR
17:59 17.2 °C 2.0 °C 1011.4 hPa SW 9.5 km/h 29.6 km/h 36% 0.0 mm CLR
18:04 17.1 °C 1.9 °C 1011.5 hPa West 9.5 km/h 25.1 km/h 36% 0.0 mm CLR
18:09 16.9 °C 1.7 °C 1011.5 hPa WSW 14.8 km/h 20.4 km/h 36% 0.0 mm CLR
18:14 16.8 °C 1.6 °C 1011.5 hPa WSW 14.8 km/h 35.2 km/h 36% 0.0 mm CLR
18:19 16.8 °C 1.6 °C 1011.3 hPa SW 16.4 km/h 42.6 km/h 36% 0.0 mm CLR
18:24 16.7 °C 1.2 °C 1011.3 hPa West 16.4 km/h 42.6 km/h 35% 0.0 mm CLR
18:29 16.7 °C 0.7 °C 1011.3 hPa West 23.3 km/h 53.7 km/h 34% 0.0 mm CLR
18:34 16.7 °C 0.7 °C 1011.6 hPa NW 23.3 km/h 48.1 km/h 34% 0.0 mm CLR
18:39 16.7 °C 1.2 °C 1011.6 hPa WSW 31.7 km/h 33.3 km/h 35% 0.0 mm CLR
18:44 16.6 °C 0.7 °C 1011.6 hPa West 31.7 km/h 37.0 km/h 34% 0.0 mm CLR
18:49 16.5 °C 0.6 °C 1012.2 hPa WSW 22.5 km/h 37.0 km/h 34% 0.0 mm CLR
18:54 16.5 °C 0.6 °C 1012.2 hPa WNW 22.5 km/h 37.0 km/h 34% 0.0 mm CLR
18:59 16.4 °C 0.5 °C 1012.2 hPa WNW 21.7 km/h 22.2 km/h 34% 0.0 mm CLR
19:04 16.3 °C 0.4 °C 1012.5 hPa WSW 21.7 km/h 33.3 km/h 34% 0.0 mm CLR
19:09 16.2 °C 0.3 °C 1012.5 hPa WNW 19.0 km/h 27.8 km/h 34% 0.0 mm CLR
19:14 16.2 °C -0.1 °C 1012.5 hPa WNW 19.0 km/h 29.6 km/h 33% 0.0 mm CLR
19:19 16.2 °C -0.6 °C 1012.8 hPa West 19.0 km/h 29.6 km/h 32% 0.0 mm CLR
19:24 16.1 °C -0.6 °C 1012.8 hPa WNW 19.0 km/h 34.3 km/h 32% 0.0 mm CLR
19:29 16.1 °C -0.6 °C 1012.8 hPa NW 20.1 km/h 25.9 km/h 32% 0.0 mm CLR
19:34 16.1 °C -0.6 °C 1013.1 hPa West 20.1 km/h 35.2 km/h 32% 0.0 mm CLR
19:39 16.0 °C -0.7 °C 1013.1 hPa WNW 18.3 km/h 20.4 km/h 32% 0.0 mm CLR
19:44 15.9 °C -0.8 °C 1013.1 hPa NW 18.3 km/h 31.5 km/h 32% 0.0 mm CLR
19:49 16.0 °C -1.2 °C 1013.3 hPa NW 18.0 km/h 27.8 km/h 31% 0.0 mm CLR
19:54 16.0 °C -1.2 °C 1013.3 hPa WNW 18.0 km/h 27.8 km/h 31% 0.0 mm CLR
19:59 15.9 °C -0.8 °C 1013.3 hPa West 17.2 km/h 25.9 km/h 32% 0.0 mm CLR
20:04 15.8 °C -0.9 °C 1013.3 hPa WNW 17.2 km/h 22.2 km/h 32% 0.0 mm CLR
20:09 15.7 °C -0.9 °C 1013.3 hPa WNW 17.2 km/h 27.8 km/h 32% 0.0 mm CLR
20:14 15.7 °C -0.9 °C 1013.3 hPa West 17.2 km/h 20.9 km/h 32% 0.0 mm CLR
20:19 15.7 °C -0.9 °C 1013.5 hPa NW 15.6 km/h 22.2 km/h 32% 0.0 mm CLR
20:24 15.7 °C -0.9 °C 1013.5 hPa West 15.6 km/h 24.1 km/h 32% 0.0 mm CLR
20:29 15.7 °C -0.9 °C 1013.5 hPa West 14.8 km/h 18.5 km/h 32% 0.0 mm CLR
20:34 15.7 °C -0.9 °C 1013.6 hPa West 14.8 km/h 25.9 km/h 32% 0.0 mm CLR
20:39 15.7 °C -0.9 °C 1013.6 hPa WNW 14.8 km/h 24.1 km/h 32% 0.0 mm CLR
20:44 15.6 °C -1.1 °C 1013.6 hPa WNW 14.8 km/h 18.5 km/h 32% 0.0 mm CLR
20:49 15.4 °C -0.8 °C 1013.8 hPa West 14.8 km/h 14.8 km/h 33% 0.0 mm CLR
20:54 15.3 °C -0.9 °C 1013.8 hPa WNW 14.8 km/h 18.5 km/h 33% 0.0 mm CLR
20:59 15.2 °C -1.0 °C 1013.8 hPa WNW 10.3 km/h 18.5 km/h 33% 0.0 mm CLR
21:04 15.1 °C -1.1 °C 1014.0 hPa WNW 10.3 km/h 14.8 km/h 33% 0.0 mm CLR
21:09 15.1 °C -0.7 °C 1014.0 hPa NW 13.0 km/h 24.1 km/h 34% 0.0 mm CLR
21:14 15.1 °C -0.7 °C 1014.0 hPa WNW 13.0 km/h 27.4 km/h 34% 0.0 mm CLR
21:19 15.2 °C -1.0 °C 1014.1 hPa West 16.4 km/h 22.2 km/h 33% 0.0 mm CLR
21:24 15.2 °C -1.0 °C 1014.1 hPa WNW 16.4 km/h 18.5 km/h 33% 0.0 mm CLR
21:29 15.2 °C -1.0 °C 1014.1 hPa West 14.8 km/h 24.1 km/h 33% 0.0 mm CLR
21:34 15.1 °C -0.7 °C 1014.5 hPa West 14.8 km/h 21.7 km/h 34% 0.0 mm CLR
21:39 15.1 °C -1.1 °C 1014.5 hPa NW 13.0 km/h 22.2 km/h 33% 0.0 mm CLR
21:44 15.1 °C -0.7 °C 1014.5 hPa WNW 13.0 km/h 14.8 km/h 34% 0.0 mm CLR
21:49 15.0 °C -0.8 °C 1014.5 hPa NW 11.9 km/h 13.0 km/h 34% 0.0 mm CLR
21:54 14.9 °C -0.8 °C 1014.5 hPa West 11.9 km/h 22.2 km/h 34% 0.0 mm CLR
21:59 15.0 °C -0.8 °C 1014.5 hPa West 11.1 km/h 22.2 km/h 34% 0.0 mm CLR
22:04 14.9 °C -0.8 °C 1014.5 hPa NW 11.1 km/h 16.7 km/h 34% 0.0 mm CLR
22:09 14.9 °C -0.8 °C 1014.5 hPa WNW 10.3 km/h 11.1 km/h 34% 0.0 mm CLR
22:14 14.9 °C -0.8 °C 1014.5 hPa WNW 10.3 km/h 16.7 km/h 34% 0.0 mm CLR
22:19 14.8 °C -0.9 °C 1014.7 hPa WNW 8.4 km/h 9.3 km/h 34% 0.0 mm CLR
22:24 14.7 °C -1.0 °C 1014.7 hPa West 8.4 km/h 11.1 km/h 34% 0.0 mm CLR
22:29 14.7 °C -1.0 °C 1014.7 hPa West 6.9 km/h 12.2 km/h 34% 0.0 mm CLR
22:34 14.6 °C -0.7 °C 1014.6 hPa NW 6.9 km/h 16.7 km/h 35% 0.0 mm CLR
22:39 14.4 °C -0.9 °C 1014.6 hPa NW 10.3 km/h 16.7 km/h 35% 0.0 mm CLR
22:44 14.3 °C -1.0 °C 1014.6 hPa NW 10.3 km/h 14.8 km/h 35% 0.0 mm CLR
22:49 14.2 °C -1.1 °C 1014.6 hPa West 10.0 km/h 18.5 km/h 35% 0.0 mm CLR
22:54 14.1 °C -0.8 °C 1014.6 hPa West 10.0 km/h 13.0 km/h 36% 0.0 mm CLR
22:59 14.0 °C -0.8 °C 1014.6 hPa WNW 9.5 km/h 13.0 km/h 36% 0.0 mm CLR
23:04 14.0 °C -0.8 °C 1014.7 hPa West 9.5 km/h 13.0 km/h 36% 0.0 mm CLR
23:09 14.1 °C -0.8 °C 1014.7 hPa West 8.7 km/h 14.8 km/h 36% 0.0 mm CLR
23:14 14.1 °C -0.8 °C 1014.7 hPa West 8.7 km/h 14.8 km/h 36% 0.0 mm CLR
23:19 14.1 °C -1.2 °C 1014.8 hPa WNW 11.1 km/h 20.4 km/h 35% 0.0 mm CLR
23:24 14.2 °C -1.1 °C 1014.8 hPa West 11.1 km/h 18.5 km/h 35% 0.0 mm CLR
23:29 14.2 °C -1.1 °C 1014.8 hPa West 15.6 km/h 22.2 km/h 35% 0.0 mm CLR
23:34 14.2 °C -1.1 °C 1014.7 hPa West 15.6 km/h 16.7 km/h 35% 0.0 mm CLR
23:39 14.1 °C -1.2 °C 1014.7 hPa WSW 14.0 km/h 14.8 km/h 35% 0.0 mm CLR
23:44 13.9 °C -0.9 °C 1014.7 hPa West 14.0 km/h 14.8 km/h 36% 0.0 mm CLR
23:49 13.9 °C -1.3 °C 1014.9 hPa WNW 10.3 km/h 18.5 km/h 35% 0.0 mm CLR
23:54 13.9 °C -1.3 °C 1014.9 hPa West 10.3 km/h 20.4 km/h 35% 0.0 mm CLR
23:59 14.0 °C -1.2 °C 1014.9 hPa West 13.0 km/h 16.4 km/h 35% 0.0 mm CLR
Murcia-Puente Tocinos, España
Compliments of Weather Underground - 2.5 mb

La estación de MeteoMurcia.com, publica sus datos en los siguientes proyectos:

Weather Underground PWS IMURCIAP2 Meteoclimatic www.awekas.at

W3Counter
Web Analytics